^^
Grace C. Lehan Memorial Weather Station Historical Data
Daily Summary for October 1, 2021 Units:  Metric    English   Both
Daily Weekly Monthly Yearly
  High: Low: Average:
Temperature: 20.1 °C 7.4 °C 13.6 °C
Dew Point: 12.2 °C 6.2 °C 8.9 °C
Humidity: 94.7% 50.6% 76%
Wind Speed: 9.7km/h 0km/h 1.3km/h
Wind Gust: 22.5km/h - -
Wind- - WNW
Pressure: 1022.6 hPa 1019.9 hPa -
Precipitation: 0 mm    
 
 
Tabular Data for October 1, 2021
Time Temperature Dew Point Pressure Wind Wind Speed Wind Gust Humidity Rainfall Rate (Hourly) solar
00:09 10.4 °C 8.3 °C 1020.2 hPa Calm     86.9% 0 mm 0 W/m2
00:14 10.3 °C 8.2 °C 1020.2 hPa Calm     87% 0 mm 0 W/m2
00:19 10.2 °C 8.2 °C 1020.2 hPa Calm     87% 0 mm 0 W/m2
00:24 10.2 °C 8.1 °C 1020.2 hPa Calm     87% 0 mm 0 W/m2
00:29 10.1 °C 8.2 °C 1020.2 hPa Calm     87.7% 0 mm 0 W/m2
00:34 10.1 °C 8.2 °C 1019.9 hPa Calm     88% 0 mm 0 W/m2
00:39 10 °C 8.1 °C 1019.9 hPa Calm     88% 0 mm 0 W/m2
00:44 9.9 °C 8.1 °C 1019.9 hPa Calm     88% 0 mm 0 W/m2
00:49 9.9 °C 8 °C 1019.9 hPa Calm     88% 0 mm 0 W/m2
00:54 9.9 °C 8.1 °C 1019.9 hPa Calm     88.4% 0 mm 0 W/m2
00:59 9.8 °C 8.1 °C 1019.9 hPa Calm     89% 0 mm 0 W/m2
01:04 9.8 °C 8.1 °C 1019.9 hPa Calm     89% 0 mm 0 W/m2
01:09 9.8 °C 8.1 °C 1019.9 hPa Calm     89% 0 mm 0 W/m2
01:14 9.8 °C 8.2 °C 1020.2 hPa Calm     90% 0 mm 0 W/m2
01:19 9.8 °C 8.2 °C 1020.2 hPa Calm     90% 0 mm 0 W/m2
01:24 9.7 °C 8.2 °C 1020.2 hPa Calm     90% 0 mm 0 W/m2
01:29 9.7 °C 8.1 °C 1020.2 hPa Calm     90% 0 mm 0 W/m2
01:34 9.7 °C 8.1 °C 1020.2 hPa Calm     90% 0 mm 0 W/m2
01:39 9.7 °C 8.1 °C 1020.2 hPa Calm     90% 0 mm 0 W/m2
01:44 9.6 °C 8 °C 1020.2 hPa Calm     90% 0 mm 0 W/m2
01:49 9.5 °C 7.9 °C 1020.2 hPa Calm     90% 0 mm 0 W/m2
01:54 9.4 °C 7.9 °C 1020.2 hPa Calm     90% 0 mm 0 W/m2
01:59 9.4 °C 7.9 °C 1020.2 hPa Calm     90% 0 mm 0 W/m2
02:04 9.4 °C 7.8 °C 1020.2 hPa Calm     90% 0 mm 0 W/m2
02:09 9.4 °C 7.8 °C 1020.2 hPa NNW 0.2 km/h 4.8 km/h 90% 0 mm 0 W/m2
02:14 9.4 °C 7.8 °C 1020.2 hPa NNW 0.3 km/h 4.8 km/h 90% 0 mm 0 W/m2
02:19 9.4 °C 7.8 °C 1020.2 hPa Calm   4.8 km/h 90% 0 mm 0 W/m2
02:24 9.4 °C 7.8 °C 1020.2 hPa Calm   4.8 km/h 90% 0 mm 0 W/m2
02:29 9.4 °C 7.8 °C 1020.2 hPa Calm   4.8 km/h 90% 0 mm 0 W/m2
02:34 9.4 °C 7.9 °C 1020.2 hPa Calm   4.8 km/h 90% 0 mm 0 W/m2
02:39 9.4 °C 7.8 °C 1020.5 hPa Calm     90% 0 mm 0 W/m2
02:44 9.4 °C 7.8 °C 1020.5 hPa Calm     90% 0 mm 0 W/m2
02:49 9.3 °C 7.8 °C 1020.5 hPa Calm     90% 0 mm 0 W/m2
02:54 9.3 °C 7.8 °C 1020.2 hPa Calm     90% 0 mm 0 W/m2
02:59 9.3 °C 7.7 °C 1020.2 hPa Calm     90% 0 mm 0 W/m2
03:04 9.3 °C 7.7 °C 1020.2 hPa Calm     90% 0 mm 0 W/m2
03:09 9.3 °C 7.7 °C 1020.2 hPa Calm     90% 0 mm 0 W/m2
03:14 9.2 °C 7.5 °C 1020.2 hPa Calm     89.1% 0 mm 0 W/m2
03:19 9.2 °C 7.4 °C 1020.2 hPa Calm     89% 0 mm 0 W/m2
03:24 9.1 °C 7.4 °C 1020.2 hPa Calm     89% 0 mm 0 W/m2
03:29 9.1 °C 7.4 °C 1020.2 hPa Calm     89% 0 mm 0 W/m2
03:34 9.1 °C 7.3 °C 1020.2 hPa Calm     89% 0 mm 0 W/m2
03:39 9.1 °C 7.3 °C 1020.2 hPa Calm     89% 0 mm 0 W/m2
03:44 8.9 °C 7.2 °C 1020.2 hPa Calm     89% 0 mm 0 W/m2
03:49 8.8 °C 7.1 °C 1020.2 hPa Calm     89% 0 mm 0 W/m2
03:54 8.7 °C 7.1 °C 1020.2 hPa Calm     90% 0 mm 0 W/m2
03:59 8.6 °C 7 °C 1020.5 hPa Calm     90% 0 mm 0 W/m2
04:00 8.5 °C 7.1 °C 1020.5 hPa Calm     90.5% 0 mm 0 W/m2
04:09 8.4 °C 7.1 °C 1020.5 hPa Calm     91% 0 mm 0 W/m2
04:14 8.4 °C 7.1 °C 1020.5 hPa Calm     91% 0 mm 0 W/m2
04:19 8.4 °C 7.1 °C 1020.5 hPa Calm     91% 0 mm 0 W/m2
04:24 8.5 °C 7.2 °C 1020.5 hPa Calm     91.7% 0 mm 0 W/m2
04:29 8.4 °C 7.2 °C 1020.9 hPa Calm     92% 0 mm 0 W/m2
04:34 8.4 °C 7.2 °C 1020.9 hPa Calm     92% 0 mm 0 W/m2
04:39 8.4 °C 7.2 °C 1020.9 hPa Calm     92% 0 mm 0 W/m2
04:44 8.4 °C 7.2 °C 1020.9 hPa Calm     92% 0 mm 0 W/m2
04:49 8.4 °C 7.2 °C 1020.9 hPa Calm   3.2 km/h 92% 0 mm 0 W/m2
04:54 8.4 °C 7.2 °C 1020.9 hPa Calm   3.2 km/h 92% 0 mm 0 W/m2
04:59 8.5 °C 7.3 °C 1020.9 hPa NNW 0.6 km/h 8 km/h 92% 0 mm 0 W/m2
05:04 8.6 °C 7.4 °C 1020.9 hPa Calm   8 km/h 92% 0 mm 0 W/m2
05:09 8.7 °C 7.4 °C 1020.9 hPa Calm     91.9% 0 mm 0 W/m2
05:14 8.7 °C 7.3 °C 1021.2 hPa Calm     91% 0 mm 0 W/m2
05:19 8.7 °C 7.3 °C 1021.2 hPa Calm     91% 0 mm 0 W/m2
05:24 8.7 °C 7.3 °C 1021.2 hPa Calm     91% 0 mm 0 W/m2
05:29 8.6 °C 7.3 °C 1021.2 hPa Calm     91% 0 mm 0 W/m2
05:34 8.6 °C 7.2 °C 1021.2 hPa Calm     91% 0 mm 0 W/m2
05:39 8.6 °C 7.2 °C 1021.2 hPa Calm     91% 0 mm 0 W/m2
05:44 8.5 °C 7.1 °C 1021.2 hPa Calm     91% 0 mm 0 W/m2
05:49 8.4 °C 7.1 °C 1021.2 hPa Calm     91% 0 mm 0 W/m2
05:54 8.3 °C 6.9 °C 1021.6 hPa Calm     91% 0 mm 0 W/m2
05:59 8.3 °C 6.9 °C 1021.6 hPa Calm     91% 0 mm 0 W/m2
06:04 8.2 °C 6.8 °C 1021.2 hPa Calm     91% 0 mm 0 W/m2
06:09 8.2 °C 6.8 °C 1021.2 hPa Calm     91% 0 mm 0 W/m2
06:14 8.1 °C 6.7 °C 1021.6 hPa Calm     91% 0 mm 0 W/m2
06:19 8.1 °C 6.7 °C 1021.6 hPa Calm     91% 0 mm 0 W/m2
06:24 7.9 °C 6.6 °C 1021.6 hPa Calm     91% 0 mm 0 W/m2
06:29 7.9 °C 6.5 °C 1021.6 hPa Calm     91% 0 mm 0 W/m2
06:34 7.8 °C 6.4 °C 1021.6 hPa Calm     91.1% 0 mm 0 W/m2
06:39 7.7 °C 6.4 °C 1021.6 hPa Calm     91% 0 mm 0 W/m2
06:44 7.7 °C 6.4 °C 1021.6 hPa Calm     92% 0 mm 0 W/m2
06:49 7.6 °C 6.3 °C 1021.6 hPa Calm     91.6% 0 mm 0 W/m2
06:54 7.5 °C 6.3 °C 1021.6 hPa Calm     92% 0 mm 0 W/m2
06:59 7.4 °C 6.2 °C 1021.9 hPa Calm     92% 0 mm 5 W/m2
07:04 7.5 °C 6.4 °C 1021.9 hPa Calm     92.6% 0 mm 7 W/m2
07:09 7.5 °C 6.4 °C 1021.9 hPa Calm     93% 0 mm 9 W/m2
07:14 7.5 °C 6.4 °C 1021.9 hPa Calm     93% 0 mm 9 W/m2
07:19 7.5 °C 6.4 °C 1021.9 hPa Calm     93% 0 mm 11 W/m2
07:24 7.5 °C 6.4 °C 1021.9 hPa Calm     93% 0 mm 12 W/m2
07:29 7.6 °C 6.5 °C 1021.9 hPa Calm     93% 0 mm 18 W/m2
07:34 7.6 °C 6.6 °C 1021.9 hPa Calm   1.6 km/h 93.1% 0 mm 18 W/m2
07:39 7.7 °C 6.8 °C 1021.9 hPa Calm   1.6 km/h 94% 0 mm 16 W/m2
07:44 7.8 °C 6.9 °C 1022.2 hPa Calm   1.6 km/h 94% 0 mm 19 W/m2
07:49 7.9 °C 7.1 °C 1022.2 hPa Calm   1.6 km/h 94% 0 mm 23 W/m2
07:54 8.1 °C 7.2 °C 1021.9 hPa Calm   1.6 km/h 94% 0 mm 21 W/m2
07:59 8.2 °C 7.3 °C 1021.9 hPa Calm   1.6 km/h 94% 0 mm 21 W/m2
08:00 8.3 °C 7.4 °C 1021.9 hPa Calm   1.6 km/h 94% 0 mm 19 W/m2
08:09 8.4 °C 7.6 °C 1022.2 hPa Calm     94% 0 mm 32 W/m2
08:14 8.6 °C 7.7 °C 1022.2 hPa Calm     94% 0 mm 26 W/m2
08:19 8.7 °C 7.8 °C 1022.2 hPa Calm     94% 0 mm 30 W/m2
08:24 8.8 °C 8 °C 1022.2 hPa Calm     94.4% 0 mm 25 W/m2
08:29 9.1 °C 8.2 °C 1022.2 hPa Calm     94.7% 0 mm 25 W/m2
08:34 9.3 °C 8.4 °C 1022.2 hPa Calm     94.7% 0 mm 37 W/m2
08:39 9.4 °C 8.6 °C 1022.2 hPa Calm     94.2% 0 mm 39 W/m2
08:44 9.7 °C 8.7 °C 1022.2 hPa Calm     94% 0 mm 39 W/m2
08:49 9.9 °C 8.9 °C 1022.2 hPa NNW 0.3 km/h 4.8 km/h 94% 0 mm 42 W/m2
08:54 10.2 °C 9.2 °C 1022.2 hPa Calm   4.8 km/h 93.8% 0 mm 49 W/m2
08:59 10.6 °C 9.5 °C 1022.6 hPa Calm   4.8 km/h 93% 0 mm 62 W/m2
09:04 10.9 °C 9.7 °C 1022.6 hPa Calm   4.8 km/h 91.7% 0 mm 243 W/m2
09:09 11.4 °C 9.8 °C 1022.6 hPa Calm     90.1% 0 mm 404 W/m2
09:14 11.9 °C 10.1 °C 1022.6 hPa Calm     88.2% 0 mm 422 W/m2
09:19 12.8 °C 10.6 °C 1022.6 hPa Calm     86.3% 0 mm 445 W/m2
09:24 13.7 °C 11.1 °C 1022.6 hPa NNW 0.2 km/h 3.2 km/h 83.8% 0 mm 462 W/m2
09:29 14.5 °C 11.2 °C 1022.6 hPa WNW 1.1 km/h 9.7 km/h 80.6% 0 mm 482 W/m2
09:34 15.3 °C 11.2 °C 1022.2 hPa West 4 km/h 14.5 km/h 76.8% 0 mm 497 W/m2
09:39 15.9 °C 11.5 °C 1022.2 hPa WNW 0.3 km/h 14.5 km/h 75.2% 0 mm 512 W/m2
09:44 16.4 °C 11.7 °C 1022.2 hPa WSW 1.3 km/h 14.5 km/h 73.3% 0 mm 526 W/m2
09:49 16.9 °C 11.4 °C 1022.2 hPa WNW 1.1 km/h 14.5 km/h 69.8% 0 mm 538 W/m2
09:54 17.4 °C 11.7 °C 1022.2 hPa NW 0.5 km/h 14.5 km/h 69.3% 0 mm 550 W/m2
09:59 17.8 °C 11.8 °C 1022.2 hPa NW 0.5 km/h 14.5 km/h 67.8% 0 mm 561 W/m2
10:04 18.1 °C 11.9 °C 1022.2 hPa Calm   14.5 km/h 67.2% 0 mm 571 W/m2
10:09 18.4 °C 12.1 °C 1022.2 hPa NW 0.2 km/h 3.2 km/h 66.6% 0 mm 582 W/m2
10:14 18.7 °C 12.1 °C 1022.2 hPa NW 1.4 km/h 8 km/h 65.2% 0 mm 596 W/m2
10:19 19 °C 12 °C 1022.2 hPa NW 1.1 km/h 8 km/h 63.7% 0 mm 608 W/m2
10:24 19.2 °C 12.1 °C 1022.2 hPa NW 0.3 km/h 8 km/h 63.2% 0 mm 617 W/m2
10:29 19.3 °C 12.2 °C 1022.2 hPa NW 0.6 km/h 8 km/h 63.3% 0 mm 628 W/m2
10:34 19.4 °C 11.8 °C 1022.2 hPa NW 1.3 km/h 8 km/h 61.2% 0 mm 638 W/m2
10:39 19.6 °C 11.8 °C 1022.2 hPa NNW 1 km/h 6.4 km/h 60.8% 0 mm 647 W/m2
10:44 19.8 °C 11.8 °C 1021.9 hPa Calm   6.4 km/h 60% 0 mm 657 W/m2
10:49 19.9 °C 11.9 °C 1021.9 hPa NNE 0.5 km/h 6.4 km/h 60.2% 0 mm 668 W/m2
10:54 20.1 °C 11.3 °C 1021.9 hPa West 3.1 km/h 14.5 km/h 57.3% 0 mm 677 W/m2
10:59 20.1 °C 11.1 °C 1021.6 hPa WNW 2.7 km/h 14.5 km/h 56.3% 0 mm 684 W/m2
11:04 20.1 °C 11.3 °C 1021.6 hPa NW 4.3 km/h 14.5 km/h 56.8% 0 mm 691 W/m2
11:09 20 °C 10.8 °C 1021.6 hPa NW 3.2 km/h 14.5 km/h 55.5% 0 mm 703 W/m2
11:14 20 °C 10.9 °C 1021.6 hPa NW 2.7 km/h 14.5 km/h 55.6% 0 mm 708 W/m2
11:19 20.1 °C 10.7 °C 1021.6 hPa WNW 6.6 km/h 16.1 km/h 54.8% 0 mm 729 W/m2
11:24 19.9 °C 10.7 °C 1021.6 hPa WNW 4.3 km/h 16.1 km/h 55% 0 mm 729 W/m2
11:29 19.9 °C 10.6 °C 1021.6 hPa WNW 4.2 km/h 16.1 km/h 55% 0 mm 640 W/m2
11:34 19.9 °C 10.7 °C 1021.6 hPa WNW 2.7 km/h 16.1 km/h 55.3% 0 mm 290 W/m2
11:39 19.9 °C 10.8 °C 1021.6 hPa WNW 2.7 km/h 12.9 km/h 55.8% 0 mm 352 W/m2
11:44 20.1 °C 11.2 °C 1021.6 hPa NNW 2.1 km/h 12.9 km/h 56.6% 0 mm 209 W/m2
11:49 20 °C 10.5 °C 1021.6 hPa WNW 2.9 km/h 16.1 km/h 54.3% 0 mm 142 W/m2
11:54 19.7 °C 9.8 °C 1021.2 hPa WNW 9.3 km/h 19.3 km/h 52.9% 0 mm 383 W/m2
11:59 19.4 °C 9.8 °C 1021.2 hPa WNW 5.1 km/h 19.3 km/h 53.8% 0 mm 383 W/m2
12:00 19.3 °C 9.8 °C 1021.2 hPa WNW 8 km/h 19.3 km/h 54% 0 mm 327 W/m2
12:09 19.2 °C 9.8 °C 1021.6 hPa WNW 7.1 km/h 19.3 km/h 54.4% 0 mm 269 W/m2
12:14 19.2 °C 9.5 °C 1021.2 hPa WNW 9.7 km/h 22.5 km/h 53.4% 0 mm 269 W/m2
12:19 19.1 °C 9.6 °C 1021.2 hPa West 5.8 km/h 22.5 km/h 54.1% 0 mm 606 W/m2
12:24 19.2 °C 9.8 °C 1021.6 hPa WNW 5.1 km/h 22.5 km/h 54.8% 0 mm 575 W/m2
12:29 19.3 °C 9.9 °C 1021.2 hPa NW 5.5 km/h 22.5 km/h 54.5% 0 mm 585 W/m2
12:34 19.4 °C 9.4 °C 1021.6 hPa WNW 7.1 km/h 22.5 km/h 52.1% 0 mm 547 W/m2
12:39 19.4 °C 9.7 °C 1021.2 hPa NW 2.3 km/h 22.5 km/h 53.3% 0 mm 118 W/m2
12:44 19.4 °C 9.5 °C 1021.2 hPa WNW 9.3 km/h 22.5 km/h 52.5% 0 mm 156 W/m2
12:49 19.3 °C 8.9 °C 1021.2 hPa NW 5.5 km/h 22.5 km/h 51.3% 0 mm 190 W/m2
12:54 19.2 °C 9.1 °C 1021.2 hPa NW 4 km/h 22.5 km/h 52% 0 mm 95 W/m2
12:59 19.3 °C 9.3 °C 1021.2 hPa NW 8.9 km/h 22.5 km/h 52.5% 0 mm 506 W/m2
13:04 19.3 °C 8.8 °C 1021.2 hPa NW 7.4 km/h 22.5 km/h 50.6% 0 mm 608 W/m2
13:09 19.4 °C 9.5 °C 1021.2 hPa West 8.2 km/h 20.9 km/h 52.8% 0 mm 165 W/m2
13:14 19.3 °C 9.5 °C 1021.2 hPa WNW 5.1 km/h 20.9 km/h 52.9% 0 mm 169 W/m2
13:19 19.4 °C 10.2 °C 1021.2 hPa West 1.8 km/h 20.9 km/h 55.3% 0 mm 169 W/m2
13:24 19.3 °C 9.6 °C 1021.2 hPa NNW 6.1 km/h 20.9 km/h 53.2% 0 mm 214 W/m2
13:29 19.1 °C 9.3 °C 1021.2 hPa NNW 4.5 km/h 20.9 km/h 52.9% 0 mm 188 W/m2
13:34 19.1 °C 9.5 °C 1020.9 hPa WNW 4 km/h 20.9 km/h 53.9% 0 mm 134 W/m2
13:39 18.9 °C 9.2 °C 1020.9 hPa WNW 4 km/h 17.7 km/h 53.2% 0 mm 336 W/m2
13:44 18.9 °C 9.7 °C 1020.9 hPa NW 6.1 km/h 17.7 km/h 55% 0 mm 496 W/m2
13:49 18.9 °C 9.9 °C 1020.9 hPa WNW 2.4 km/h 17.7 km/h 55.7% 0 mm 450 W/m2
13:54 19.1 °C 10 °C 1020.9 hPa NW 2.9 km/h 17.7 km/h 55.5% 0 mm 192 W/m2
13:59 19.3 °C 9.8 °C 1020.5 hPa WNW 4.3 km/h 17.7 km/h 54.2% 0 mm 232 W/m2
14:04 19.5 °C 10.2 °C 1020.5 hPa WNW 3.5 km/h 19.3 km/h 55% 0 mm 350 W/m2
14:09 19.6 °C 10.1 °C 1020.5 hPa WNW 4.5 km/h 19.3 km/h 54% 0 mm 230 W/m2
14:14 19.6 °C 9.9 °C 1020.5 hPa WNW 1.9 km/h 19.3 km/h 53.6% 0 mm 211 W/m2
14:19 19.6 °C 10.2 °C 1020.5 hPa WNW 7.7 km/h 19.3 km/h 54.6% 0 mm 195 W/m2
14:24 19.6 °C 9.4 °C 1020.5 hPa WNW 8.2 km/h 19.3 km/h 52% 0 mm 137 W/m2
14:29 19.4 °C 9.7 °C 1020.2 hPa West 4.8 km/h 19.3 km/h 53.4% 0 mm 134 W/m2
14:34 19.2 °C 9.4 °C 1020.2 hPa WSW 3.1 km/h 19.3 km/h 53.1% 0 mm 105 W/m2
14:39 19 °C 9.6 °C 1020.2 hPa West 2.9 km/h 16.1 km/h 54.3% 0 mm 72 W/m2
14:44 18.8 °C 9.7 °C 1020.2 hPa West 2.1 km/h 16.1 km/h 55.4% 0 mm 163 W/m2
14:49 18.7 °C 9.5 °C 1020.2 hPa WSW 3.1 km/h 16.1 km/h 55.2% 0 mm 102 W/m2
14:54 18.6 °C 9.5 °C 1020.2 hPa West 6.6 km/h 16.1 km/h 55.4% 0 mm 156 W/m2
14:59 18.5 °C 9.4 °C 1020.2 hPa NW 2.1 km/h 16.1 km/h 55.2% 0 mm 190 W/m2
15:04 18.6 °C 9.4 °C 1019.9 hPa WNW 1.8 km/h 16.1 km/h 55.3% 0 mm 188 W/m2
15:09 18.7 °C 9.4 °C 1019.9 hPa West 4.3 km/h 17.7 km/h 54.8% 0 mm 74 W/m2
15:14 18.9 °C 9.4 °C 1020.2 hPa WSW 4.5 km/h 17.7 km/h 53.9% 0 mm 98 W/m2
15:19 19 °C 9.2 °C 1020.2 hPa West 5 km/h 17.7 km/h 52.8% 0 mm 192 W/m2
15:24 18.9 °C 9.3 °C 1020.2 hPa West 3.9 km/h 17.7 km/h 53.5% 0 mm 192 W/m2
15:29 18.8 °C 9.6 °C 1020.2 hPa WNW 2.7 km/h 17.7 km/h 54.8% 0 mm 67 W/m2
15:34 18.7 °C 9.5 °C 1020.2 hPa WNW 2.3 km/h 17.7 km/h 55% 0 mm 77 W/m2
15:39 18.6 °C 8.9 °C 1019.9 hPa WNW 1.3 km/h 14.5 km/h 53.4% 0 mm 149 W/m2
15:44 18.5 °C 9.1 °C 1019.9 hPa NW 1.4 km/h 14.5 km/h 54.1% 0 mm 107 W/m2
15:49 18.6 °C 9.2 °C 1019.9 hPa NW 1.8 km/h 14.5 km/h 54.5% 0 mm 60 W/m2
15:54 18.7 °C 9.1 °C 1019.9 hPa NW 1.8 km/h 14.5 km/h 53.8% 0 mm 83 W/m2
15:59 18.8 °C 9.3 °C 1019.9 hPa NW 0.5 km/h 14.5 km/h 54% 0 mm 83 W/m2
16:00 18.8 °C 9.1 °C 1019.9 hPa Calm   14.5 km/h 53% 0 mm 39 W/m2
16:09 18.9 °C 9.6 °C 1019.9 hPa NW 3.4 km/h 9.7 km/h 54.7% 0 mm 77 W/m2
16:14 19.1 °C 9.6 °C 1019.9 hPa NW 1.1 km/h 9.7 km/h 54% 0 mm 67 W/m2
16:19 19.1 °C 9.3 °C 1019.9 hPa WNW 3.5 km/h 14.5 km/h 53% 0 mm 47 W/m2
16:24 19.1 °C 9.5 °C 1019.9 hPa NW 4.3 km/h 16.1 km/h 53.8% 0 mm 32 W/m2
16:29 19.1 °C 8.9 °C 1019.9 hPa WNW 7.7 km/h 20.9 km/h 52% 0 mm 26 W/m2
16:34 19 °C 9.3 °C 1019.9 hPa WNW 6.1 km/h 20.9 km/h 53.3% 0 mm 26 W/m2
16:39 18.9 °C 9.7 °C 1019.9 hPa WNW 1.3 km/h 16.1 km/h 54.9% 0 mm 25 W/m2
16:44 18.9 °C 9.7 °C 1020.2 hPa WNW 3.1 km/h 16.1 km/h 55.1% 0 mm 25 W/m2
16:49 18.8 °C 9.3 °C 1020.2 hPa West 7.4 km/h 16.1 km/h 54% 0 mm 25 W/m2
16:54 18.8 °C 9 °C 1020.2 hPa West 5.3 km/h 16.1 km/h 53% 0 mm 23 W/m2
16:59 18.7 °C 9.2 °C 1020.2 hPa WNW 3.7 km/h 16.1 km/h 54% 0 mm 23 W/m2
17:04 18.7 °C 9.3 °C 1020.2 hPa West 3.7 km/h 16.1 km/h 54.3% 0 mm 23 W/m2
17:09 18.6 °C 8.9 °C 1020.2 hPa WNW 4.3 km/h 14.5 km/h 53.5% 0 mm 21 W/m2
17:14 18.5 °C 8.9 °C 1020.2 hPa WNW 3.5 km/h 14.5 km/h 53.6% 0 mm 23 W/m2
17:19 18.3 °C 9.1 °C 1020.2 hPa West 0.6 km/h 14.5 km/h 54.8% 0 mm 25 W/m2
17:24 18.3 °C 9.1 °C 1020.2 hPa WNW 2.4 km/h 14.5 km/h 55% 0 mm 28 W/m2
17:29 18.2 °C 9.1 °C 1020.2 hPa WNW 3.1 km/h 14.5 km/h 55.4% 0 mm 35 W/m2
17:34 18.1 °C 8.9 °C 1020.2 hPa WNW 2.6 km/h 14.5 km/h 55% 0 mm 33 W/m2
17:39 18 °C 9.2 °C 1020.5 hPa WNW 1 km/h 8 km/h 56.3% 0 mm 19 W/m2
17:44 17.9 °C 9.1 °C 1020.5 hPa WNW 0.3 km/h 8 km/h 56.4% 0 mm 14 W/m2
17:49 17.8 °C 9.4 °C 1020.5 hPa Calm   8 km/h 57.8% 0 mm 12 W/m2
17:54 17.7 °C 9.3 °C 1020.5 hPa WNW 0.2 km/h 8 km/h 58% 0 mm 12 W/m2
17:59 17.6 °C 9.4 °C 1020.5 hPa WNW 0.6 km/h 8 km/h 58.9% 0 mm 11 W/m2
18:04 17.4 °C 9.4 °C 1020.5 hPa Calm   8 km/h 59.4% 0 mm 9 W/m2
18:09 17.3 °C 9.4 °C 1020.5 hPa Calm     60.1% 0 mm 9 W/m2
18:14 17.1 °C 9.6 °C 1020.9 hPa WNW 0.2 km/h 1.6 km/h 61.1% 0 mm 9 W/m2
18:19 17 °C 9.7 °C 1020.9 hPa Calm   1.6 km/h 62% 0 mm 7 W/m2
18:24 16.8 °C 9.7 °C 1020.9 hPa Calm   1.6 km/h 62.8% 0 mm 5 W/m2
18:29 16.7 °C 9.7 °C 1021.2 hPa Calm   1.6 km/h 63.2% 0 mm 0 W/m2
18:34 16.6 °C 9.6 °C 1021.2 hPa Calm   1.6 km/h 63.6% 0 mm 0 W/m2
18:39 16.4 °C 9.7 °C 1021.2 hPa Calm     64.5% 0 mm 0 W/m2
18:44 16.2 °C 9.7 °C 1020.9 hPa Calm     65% 0 mm 0 W/m2
18:49 16.1 °C 9.7 °C 1020.9 hPa Calm     66% 0 mm 0 W/m2
18:54 15.9 °C 9.6 °C 1020.9 hPa Calm     66% 0 mm 0 W/m2
18:59 15.7 °C 9.5 °C 1020.9 hPa Calm     66.4% 0 mm 0 W/m2
19:04 15.6 °C 9.5 °C 1020.9 hPa Calm     67.2% 0 mm 0 W/m2
19:09 15.4 °C 9.6 °C 1020.9 hPa Calm     68.4% 0 mm 0 W/m2
19:14 15.2 °C 9.7 °C 1020.9 hPa Calm     69.5% 0 mm 0 W/m2
19:19 15.1 °C 9.6 °C 1020.9 hPa Calm     70% 0 mm 0 W/m2
19:24 14.9 °C 9.7 °C 1021.2 hPa Calm     71% 0 mm 0 W/m2
19:29 14.7 °C 9.6 °C 1021.2 hPa Calm     71.3% 0 mm 0 W/m2
19:34 14.6 °C 9.7 °C 1021.2 hPa Calm     72.4% 0 mm 0 W/m2
19:39 14.4 °C 9.7 °C 1021.2 hPa Calm     73.5% 0 mm 0 W/m2
19:44 14.3 °C 9.7 °C 1021.2 hPa Calm     74% 0 mm 0 W/m2
19:49 14.1 °C 9.6 °C 1021.2 hPa Calm     74% 0 mm 0 W/m2
19:54 14 °C 9.6 °C 1021.2 hPa Calm     74.8% 0 mm 0 W/m2
19:59 13.9 °C 9.6 °C 1021.2 hPa Calm     75.5% 0 mm 0 W/m2
20:00 13.8 °C 9.6 °C 1021.2 hPa Calm     76% 0 mm 0 W/m2
20:09 13.6 °C 9.7 °C 1021.2 hPa Calm     77% 0 mm 0 W/m2
20:14 13.5 °C 9.6 °C 1021.2 hPa Calm     77.4% 0 mm 0 W/m2
20:19 13.3 °C 9.6 °C 1021.2 hPa Calm     78% 0 mm 0 W/m2
20:24 13.2 °C 9.6 °C 1021.2 hPa Calm     78.7% 0 mm 0 W/m2
20:29 13.1 °C 9.5 °C 1021.6 hPa Calm     79% 0 mm 0 W/m2
20:34 12.9 °C 9.6 °C 1021.2 hPa Calm     79.8% 0 mm 0 W/m2
20:39 12.8 °C 9.5 °C 1021.6 hPa Calm     80% 0 mm 0 W/m2
20:44 12.8 °C 9.6 °C 1021.6 hPa Calm     80.8% 0 mm 0 W/m2
20:49 12.7 °C 9.5 °C 1021.6 hPa Calm     81% 0 mm 0 W/m2
20:54 12.6 °C 9.4 °C 1021.6 hPa Calm     81% 0 mm 0 W/m2
20:59 12.6 °C 9.4 °C 1021.6 hPa Calm     81% 0 mm 0 W/m2
21:04 12.5 °C 9.4 °C 1021.6 hPa Calm     81.5% 0 mm 0 W/m2
21:09 12.4 °C 9.4 °C 1021.6 hPa Calm     81.8% 0 mm 0 W/m2
21:14 12.4 °C 9.4 °C 1021.2 hPa Calm     82% 0 mm 0 W/m2
21:19 12.3 °C 9.3 °C 1021.6 hPa Calm     82% 0 mm 0 W/m2
21:24 12.3 °C 9.4 °C 1021.2 hPa Calm     82.6% 0 mm 0 W/m2
21:29 12.3 °C 9.4 °C 1021.6 hPa Calm     82.8% 0 mm 0 W/m2
21:34 12.2 °C 9.3 °C 1021.6 hPa Calm     82.4% 0 mm 0 W/m2
21:39 12.2 °C 9.3 °C 1021.6 hPa Calm     83% 0 mm 0 W/m2
21:44 12.1 °C 9.3 °C 1021.6 hPa Calm     83% 0 mm 0 W/m2
21:49 12 °C 9.2 °C 1021.6 hPa Calm     83% 0 mm 0 W/m2
21:54 11.9 °C 9.3 °C 1021.6 hPa Calm     83.6% 0 mm 0 W/m2
21:59 11.9 °C 9.3 °C 1021.6 hPa Calm     84% 0 mm 0 W/m2
22:04 11.8 °C 9.3 °C 1021.6 hPa Calm     84.4% 0 mm 0 W/m2
22:09 11.7 °C 9.3 °C 1021.6 hPa Calm     85% 0 mm 0 W/m2
22:14 11.7 °C 9.2 °C 1021.6 hPa Calm     85% 0 mm 0 W/m2
22:19 11.6 °C 9.3 °C 1021.6 hPa Calm     85.8% 0 mm 0 W/m2
22:24 11.6 °C 9.3 °C 1021.6 hPa Calm     86% 0 mm 0 W/m2
22:29 11.5 °C 9.2 °C 1021.6 hPa Calm     86% 0 mm 0 W/m2
22:34 11.4 °C 9.2 °C 1021.6 hPa Calm     86% 0 mm 0 W/m2
22:39 11.3 °C 9 °C 1021.6 hPa Calm     86% 0 mm 0 W/m2
22:44 11.2 °C 9 °C 1021.6 hPa Calm     86.5% 0 mm 0 W/m2
22:49 11.1 °C 9 °C 1021.6 hPa Calm     87% 0 mm 0 W/m2
22:54 11 °C 8.9 °C 1021.6 hPa Calm     87% 0 mm 0 W/m2
22:59 10.9 °C 8.9 °C 1021.6 hPa Calm     87.3% 0 mm 0 W/m2
23:04 10.8 °C 8.9 °C 1021.6 hPa Calm     88% 0 mm 0 W/m2
23:09 10.7 °C 8.8 °C 1021.6 hPa Calm     88% 0 mm 0 W/m2
23:14 10.7 °C 8.8 °C 1021.6 hPa Calm     88% 0 mm 0 W/m2
23:19 10.6 °C 8.8 °C 1021.6 hPa Calm     88.4% 0 mm 0 W/m2
23:24 10.6 °C 9.1 °C 1021.6 hPa Calm     90.5% 0 mm 0 W/m2
23:29 10.6 °C 8.9 °C 1021.6 hPa Calm     89.1% 0 mm 0 W/m2
23:34 10.6 °C 8.8 °C 1021.6 hPa Calm     89% 0 mm 0 W/m2
23:39 10.6 °C 8.8 °C 1021.6 hPa Calm     89% 0 mm 0 W/m2
23:44 10.5 °C 8.8 °C 1021.2 hPa Calm     89% 0 mm 0 W/m2
23:49 10.4 °C 8.8 °C 1021.2 hPa Calm     89.6% 0 mm 0 W/m2
23:54 10.4 °C 8.8 °C 1021.2 hPa Calm     90% 0 mm 0 W/m2
23:59 10.3 °C 8.7 °C 1021.2 hPa Calm     89.7% 0 mm 0 W/m2
Hartford County Weather
Compliments of Weather Underground - 4 mb